CW7283 Weather Reports


Display with metric or nautical units.
time (UTC)temp
F
wind
direction
speed
MPH
gust
MPH
rain 1hr
in
rain 24hr
in
rain mn
in
humidity
%
barometer
mb
20260506093348 21 232 0.0 0.0 0.00 0.00 0.00 78 1018.3
20260506091838 22 232 0.0 0.0 0.00 0.00 0.00 78 1018.3
20260506090327 22 232 0.0 0.0 0.00 0.00 0.00 78 1018.3
20260506084845 22 232 0.0 0.0 0.00 0.00 0.00 77 1018.3
20260506083338 22 232 0.0 0.0 0.00 0.00 0.00 76 1018.4
20260506081829 23 232 0.0 0.0 0.00 0.00 0.00 73 1018.4
20260506080348 24 232 0.0 0.0 0.00 0.00 0.00 73 1018.4
20260506073418 24 232 0.0 0.0 0.00 0.00 0.00 72 1018.6
20260506071829 25 233 0.0 0.0 0.00 0.00 0.00 72 1018.7
20260506070341 26 233 0.0 0.0 0.00 0.00 0.00 72 1018.8
20260506061852 26 242 0.0 0.0 0.00 0.00 0.00 68 1018.8
20260506060351 26 242 0.0 0.0 0.00 0.00 0.00 66 1018.7
20260506050350 29 343 0.0 0.0 0.00 0.00 0.00 60 1018.3
20260506044839 30 343 0.0 0.0 0.00 0.00 0.00 58 1018.4
20260506043339 30 343 0.0 0.0 0.00 0.00 0.00 58 1018.4
20260506041835 31 343 0.0 0.0 0.00 0.00 0.00 57 1018.4
20260506040418 31 344 0.0 0.0 0.00 0.00 0.00 56 1018.3
20260506034839 32 344 0.0 0.0 0.00 0.00 0.00 55 1018.3
20260506033333 33 348 0.0 0.0 0.00 0.00 0.00 53 1018.3
20260506031845 34 348 0.0 0.0 0.00 0.00 0.00 52 1018.1
20260506030330 35 360 0.0 0.0 0.00 0.00 0.00 51 1017.7
20260506024826 36 5 0.0 0.0 0.00 0.00 0.00 49 1017.6
20260506023404 37 9 0.0 0.0 0.00 0.00 0.00 48 1017.2
20260506021823 37 9 0.0 2.0 0.00 0.00 0.00 47 1017.1
20260506020339 37 13 0.0 1.0 0.00 0.00 0.00 46 1016.8
20260506014827 38 360 0.0 4.0 0.00 0.00 0.00 45 1016.6
20260506013331 39 318 0.0 2.0 0.00 0.00 0.00 46 1016.5
20260506011825 39 11 0.0 3.0 0.00 0.00 0.00 44 1016.4
20260506010331 40 311 0.0 3.0 0.00 0.00 0.00 43 1016.1
20260506004840 40 25 0.0 6.0 0.00 0.00 0.00 42 1016.0
20260506003337 40 20 2.0 7.0 0.00 0.00 0.00 43 1015.9
20260506001838 41 279 0.0 5.0 0.00 0.00 0.00 45 1015.8
20260506000343 43 33 0.0 7.0 0.00 0.00 0.00 42 1015.6
20260505234828 41 298 0.0 8.0 0.00 0.00 0.00 43 1015.5
20260505233400 42 330 0.0 5.0 0.00 0.00 0.00 44 1015.3
20260505231854 43 340 0.0 7.0 0.00 0.00 0.00 44 1015.3
20260505230333 43 346 2.0 8.0 0.00 0.00 0.00 42 1015.2
20260505224832 41 317 1.0 7.0 0.00 0.00 0.00 46 1015.3
20260505223349 41 350 0.0 7.0 0.00 0.00 0.00 55 1015.2
20260505221831 42 248 0.0 6.0 0.00 0.00 0.00 57 1015.2
20260505220331 44 311 1.0 9.0 0.00 0.00 0.00 54 1015.2
20260505214837 43 309 1.0 7.0 0.00 0.00 0.00 57 1015.3
20260505213420 42 256 2.0 6.0 0.00 0.00 0.00 59 1015.3
20260505211900 42 292 1.0 12.0 0.00 0.00 0.00 59 1015.3
20260505210344 42 297 0.0 13.0 0.00 0.00 0.00 52 1015.2
20260505204840 44 12 1.0 6.0 0.00 0.00 0.00 46 1014.9
20260505203355 44 323 0.0 7.0 0.00 0.00 0.00 45 1014.9
20260505201903 45 24 0.0 7.0 0.00 0.00 0.00 50 1015.3
20260505200339 44 19 1.0 8.0 0.00 0.00 0.00 48 1015.3
20260505194830 43 355 2.0 9.0 0.00 0.00 0.00 47 1015.0
20260505193336 44 23 2.0 7.0 0.00 0.00 0.00 46 1014.9
20260505191833 44 24 3.0 10.0 0.00 0.00 0.00 46 1014.9
20260505190342 44 355 2.0 10.0 0.00 0.00 0.00 44 1014.9
20260505184916 44 19 1.0 6.0 0.00 0.00 0.00 44 1015.0
20260505183330 43 279 1.0 7.0 0.00 0.00 0.00 46 1015.2
20260505181839 43 355 1.0 6.0 0.00 0.00 0.00 44 1015.3
20260505180328 42 360 0.0 6.0 0.00 0.00 0.00 45 1015.3
20260505174832 40 334 1.0 3.0 0.00 0.00 0.00 47 1015.4
20260505173343 41 34 0.0 3.0 0.00 0.00 0.00 46 1015.6
20260505171838 41 19 0.0 7.0 0.00 0.00 0.00 47 1015.6
20260505170335 41 18 2.0 10.0 0.00 0.00 0.00 45 1015.8
20260505164835 39 5 2.0 9.0 0.00 0.00 0.00 47 1015.8
20260505163334 38 360 3.0 7.0 0.00 0.00 0.00 48 1015.9
20260505161833 39 5 1.0 11.0 0.00 0.00 0.00 50 1015.9
20260505160326 39 346 3.0 12.0 0.00 0.00 0.00 49 1016.0
20260505153335 38 355 3.0 8.0 0.00 0.00 0.00 50 1016.1
20260505151823 37 17 3.0 10.0 0.00 0.00 0.00 49 1016.4
20260505150359 37 31 2.0 10.0 0.00 0.00 0.00 48 1016.4
20260505140332 36 346 0.0 3.0 0.00 0.00 0.00 58 1015.9
20260505124830 30 5 0.0 0.0 0.00 0.00 0.00 75 1015.4
20260505123341 30 288 0.0 1.0 0.00 0.00 0.00 76 1015.3
20260505121856 29 244 0.0 0.0 0.00 0.00 0.00 77 1015.3
20260505120345 29 223 0.0 2.0 0.00 0.00 0.00 77 1015.5
20260505114841 29 311 0.0 0.0 0.00 0.00 0.00 77 1015.5
20260505113339 29 325 0.0 2.0 0.00 0.00 0.00 78 1015.5
20260505111852 29 302 0.0 1.0 0.00 0.00 0.00 78 1015.5
20260505110339 29 315 0.0 1.0 0.00 0.00 0.00 77 1015.5
20260505101831 29 308 0.0 0.0 0.00 0.00 0.00 75 1015.4
20260505100330 29 313 0.0 0.0 0.00 0.00 0.00 75 1015.3
20260505094831 30 10 0.0 3.0 0.00 0.00 0.00 74 1015.3